Overview Statistics Trail Chart Weather Telemetry Raw packets
 

This is the latest recevied weather packets stored in our database for station/object DK6MR-13. If no packets are shown the sender has not sent any weather packets the latest 10 day(s).

<< 6 7 8 9 10 11 12 >>
Time Temp. Humidity Pressure Rain* Wind** Luminosity Snow
1777919008 14.44° C 91% 1011.1 hPa 0 mm - - -
1777918107 14.44° C 90% 1011.1 hPa 0 mm - - -
1777917206 14.44° C 90% 1011.1 hPa 0 mm - - -
1777916305 15° C 91% 1011.1 hPa 0 mm - - -
1777915404 15° C 90% 1011.5 hPa 0 mm - - -
1777914503 15° C 90% 1011.5 hPa 0 mm - - -
1777913602 15° C 90% 1011.5 hPa 0 mm - - -
1777912702 15° C 89% 1011.5 hPa 0 mm - - -
1777911800 15° C 89% 1011.8 hPa 0 mm - - -
1777910899 15° C 88% 1011.8 hPa 0 mm - - -
1777909998 15.56° C 88% 1011.8 hPa 0 mm - - -
1777909097 15.56° C 89% 1012.2 hPa 1.78 mm - - -
1777908196 15.56° C 88% 1011.8 hPa 1.27 mm - - -
1777907295 15.56° C 89% 1011.8 hPa 0 mm - - -
1777906394 16.11° C 89% 1011.8 hPa 1.78 mm - - -
1777905493 16.11° C 89% 1011.8 hPa 0 mm - - -
1777904592 16.11° C 88% 1011.8 hPa 1.78 mm - - -
1777903691 15.56° C 88% 1011.8 hPa 0 mm - - -
1777902790 15.56° C 88% 1011.8 hPa 0 mm - - -
1777901889 15.56° C 87% 1011.5 hPa 0 mm - - -
1777900988 15° C 87% 1011.8 hPa 27.69 mm - - -
1777900091 16.67° C 82% 1011.5 hPa 33.53 mm - - -
1777899186 21.11° C 62% 1010.5 hPa 0 mm - - -
1777898285 21.67° C 55% 1010.5 hPa 0 mm - - -
1777897384 22.78° C 54% 1010.8 hPa 0 mm - - -

* Rain latest hour (hover to see other rain measurements)
** Current wind speed in m/s (hover to see current wind gust speed)